Regional Weather Roundup
Issued by NWS

Home | Current Version | Previous Version | Text Only | Print | Product List | Glossary On
Versions: 1 2 3 4 5 6 7 8 9 10 11 12 13 14 15 16 17 18 19 20 21 22 23 24 25 26 27 28 29 30 31 32 33 34 35 36 37 38 39 40 41 42 43 44 45 46 47 48 49 50
612
ASHW40 PHFO 241343
RWRHI

WEATHER ROUNDUP FOR HAWAII
NATIONAL WEATHER SERVICE HONOLULU HI
300 AM HST TUE MAY 24 2016

THIS IS AN AUTOMATED REPORT THAT HAS NOT BEEN QUALITY CONTROLLED.

NOTE..."FAIR" INDICATES FEW OR NO CLOUDS BELOW 12,000 FEET WITH NO
SIGNIFICANT WEATHER AND/OR OBSTRUCTIONS TO VISIBILITY.

* - THESE SITES REPORT LIMITED FIELDS

HIZ001>004-241400-
KAUAI-NIIHAU-

CITY           SKY/WX    TMP DP  RH WIND       PRES   REMARKS
LIHUE APT      PTCLDY    74  67  78 NE10      30.08F
PORT ALLEN*      N/A     70 N/A N/A NE6         N/A
POIPU*           N/A     73 N/A N/A N5          N/A
PRINCEVILLE*     N/A     68 N/A N/A S3          N/A
KOKOLE POINT*    N/A     72 N/A N/A MISG        N/A
MOLOAA DAIRY*    N/A     72  68  88 SE2         N/A
WAIMEA HTS*      N/A     72  59  64 CALM        N/A
PUU OPAE*        N/A     64  57  77 CALM        N/A
PUU LUA*       NOT AVBL
MAKAHA RIDGE*    N/A     66  55  68 CALM        N/A
$$

HIZ005>011-241400-
OAHU-

CITY           SKY/WX    TMP DP  RH WIND       PRES   REMARKS
HONOLULU       PTCLDY    74  66  76 CALM      30.05F
KALAELOA       CLEAR     72  65  78 NE3       30.06F
KANEOHE MCB    PTCLDY    76  66  71 NE7       30.03F
WHEELER FIELD  NOT AVBL
BELLOWS*         N/A    N/A N/A N/A NE13        N/A
KAHUKU*          N/A    N/A N/A N/A VRB7G13     N/A
WHEELER*         N/A    N/A N/A N/A NW2         N/A
WAIANAE HARBOR   N/A    N/A N/A N/A N1          N/A
DILLINGHAM*      N/A     90  84  84 MISG        N/A  HX 115
KAHUKU TRN*      N/A     72  66  83 CALM        N/A
KAWAILOA*        N/A     70  63  78 E7G17       N/A
KII*             N/A     75  68  78 E13         N/A
MAKUA RANGE*     N/A     72  63  73 SE3G9       N/A
OAHU FOREST NW   N/A     66  63  88 S13G25      N/A
SCHOFIELD BRK*   N/A     82  79  89 S1          N/A  HX  93
SCHOFIELD S*   NOT AVBL
WAIANAE VLY*     N/A     88  73  62 N5G12       N/A  HX  96
KUAOKALA*        N/A     72  63  73 NE9G15      N/A
HONOULIUULI*   NOT AVBL
MOKUOLOE IS*   NOT AVBL
PALEHUA*         N/A     64  61  88 NE12G17     N/A
WAIAWA PHB*    NOT AVBL
$$

HIZ012>013-241400-
MOLOKAI-

CITY           SKY/WX    TMP DP  RH WIND       PRES   REMARKS
MOLOKAI AIRPT  CLEAR     72  63  73 N9        30.05F
KALAUPAPA      NOT AVBL
MAKAPULAPAI*     N/A     73  66  78 E13G21      N/A
MOLOKAI 1*       N/A     75  63  64 E2G12       N/A
PUU ALII*        N/A     56  56  99 NE2G9       N/A
$$

HIZ016-241400-
KAHOOLAWE-

CITY           SKY/WX    TMP DP  RH WIND       PRES   REMARKS
KAHOOLAWE*       N/A     66 N/A N/A NE1         N/A
HAKIOAWA*        N/A     83  80  91 MISG      30.46F HX  95
HONOKANAIA*      N/A     75  62  62 N7G14     29.99F
KANELOA*         N/A     72  61  68 N8G18     30.11F
KEALIALALO*    NOT AVBL
LUA MAKIKA*    NOT AVBL
$$

HIZ014>015-241400-
LANAI-

CITY           SKY/WX    TMP DP  RH WIND       PRES   REMARKS
LANAI CITY     FAIR      67  63  87 NE9       30.09F
LANAI 1*         N/A     68  64  88 NE14        N/A
$$

HIZ017>028-241400-
MAUI-

CITY           SKY/WX    TMP DP  RH WIND       PRES   REMARKS
KAHULUI        CLEAR     71  65  81 E9        30.04F
KAPALUA-W MAUI NOT AVBL
HANA AIRPORT   NOT AVBL
HANA*            N/A     75 N/A N/A E5          N/A
HALEAKALA SUMM   N/A     39   9  28 E8G23       N/A
MAALAEA BAY*     N/A     73 N/A N/A N10G18      N/A
HALEAKALA*     NOT AVBL
KAUPO GAP*       N/A     59  46  63 NW6G14      N/A
KULA 1*          N/A    N/A N/A N/A E3          N/A
$$

HIZ023>026-241400-
BIG ISLAND OF HAWAII COAST AND LOWER SLOPES-

CITY           SKY/WX    TMP DP  RH WIND       PRES   REMARKS
KAILUA KONA    MOCLDY    75  66  73 SE8       29.99F
HILO           LGT RAIN  70  66  88 SW9       30.05F
HONOKAA*         N/A     66 N/A N/A VRB1        N/A
KAWAIHAE MWT*    N/A     75 N/A N/A NE2         N/A
KAWAIHAE*        N/A     75 N/A N/A NE5       30.00F
SOUTH POINT*     N/A     68 N/A N/A N12G18      N/A
UPOLU AIRPORT*   N/A    N/A N/A N/A E14G21      N/A
KAMUELA*       PTSUNNY   63  61  94 NE15      30.12S
HAKALAU*         N/A     46  43  87 SW3G12      N/A
KALOKO-HONOKO*   N/A     73  63  68 CALM      29.98
PALI 2*          N/A     64  57  77 S8          N/A
KEALAKOMO*       N/A     73  66  78 NE10G17     N/A
KAUPULEHU*       N/A     66  61  82 SE8         N/A
KAPAPALA*        N/A     57  55  91 N3          N/A
LOWER KAHUKU*    N/A     57 -42   1 VRB3        N/A
PUHE CS*         N/A     73  64  73 NE2         N/A
PUHO CS*         N/A     73  65  75 E1          N/A
PTA KEAMUKU*     N/A     57  52  82 CALM        N/A
WAIKOLOA*        N/A     68  59  73 E12G18      N/A
$$

HIZ027>028-241400-
BIG ISLAND OF HAWAII INTERIOR AND SUMMMITS-

CITY           SKY/WX    TMP DP  RH WIND       PRES   REMARKS
BRADSHAW FIELD NOT AVBL
MK VISITOR CEN   N/A     43  18  36 VRB5        N/A
MAUNA KEA*       N/A     37 -18   8 CALM        N/A
MAUNA LOA*       N/A     37  -2  18 MISG        N/A
MAUNA LOA 1*   NOT AVBL
PTA KIPUKA*      N/A     50  48  93 SE5         N/A
PTA RANGE 17*    N/A     52  41  66 E5G15       N/A
PTA WEST*        N/A     55  50  82 SE10        N/A
NENE CABIN*      N/A     45  39  81 NE5         N/A
AHUMOA*          N/A     46  39  76 E8          N/A
PTA PORTABLE*  NOT AVBL
PUU MALI*        N/A     50  39  66 S1G10       N/A
$$

HIC003-241400-
NORTHWEST ISLANDS-

CITY           SKY/WX    TMP DP  RH WIND       PRES   REMARKS
MIDWAY ISLAND  CLOUDY    68  68 100 E14       30.19F
MIDWAY NOS*      N/A     70 N/A N/A MISG      30.17F
FRENCH FRIGATE NOT AVBL
$$

PHZ110>124-180-241400-
BUOY REPORTS

STATION/POSITION TIME  TEMP    WIND        PRES    WAVE   SWELL
                       AIR SEA DIR/SP/G            HT/PER HT/DIR
                 (UTC) (F)     (DEG/KT/KT) (MB)    (FT/S) (FT/D)
BUOY 51001       1300   79 80   90/ 12/ 16 1018.0F
BUOY 51101       1250   75 78  100/  8/ 12 1019.6F   4/ 8   3/ 90
BUOY 51100       NOT AVBL
BUOY 51002       1250   77 78   80/ 14/ 17 1015.3F   6/ 8   5/ 90
BUOY 51003       1250   78 80   60/  8/ 10 1016.9F   5/ 8   5/ 70
BUOY 51004       1250   77 79   70/ 16/ 17 1015.1F   7/ 9   5/ 60
BARBERS PT BUOY  NOT AVBL
WAIMEA BAY BUOY  1304      78                N/A     4/ 8
KAILUA BAY BUOY  1311      78                N/A     5/ 8   2/ 50
LANAI BUOY       1315      79                N/A     2/15   2/190
BARBERS PT 2     1303      79                N/A     3/15   2/190
PAUWELA MAUI     1309      77                N/A     5/ 9   2/ 60
HILO             1312      79                N/A     7/ 8   2/ 70
KANEOHE BAY BUOY 1306      78                N/A     5/ 9   2/ 50
HANALEI KAUAI    NOT AVBL
KAHULUI HARBOR   1300   74 78  350/ 10/ 15 1017.0F
HONOLULU HARBOR  1300   76 79   CALM  /  2 1018.0F
KILO NALU        NOT AVBL
HILO HARBOR      1300   69 79  220/  6/  7 1017.4F
MOKUOLOE         1200   77 80  100/  6/ 10 1018.2F
NAWILIWILI       1300   72 80  260/  6/  7 1018.0F
WHOTS BUOY       NOT AVBL
BUOY 51028       NOT AVBL
$$

......................KEY........................................
  SKY/WX - SKY CONDITIONS/PRESENT WEATHER
  TMP    - TEMPERATURE IN FAHRENHEIT
  DWPT   - DEWPOINT IN FAHRENHEIT
  RH     - RELATIVE HUMIDITY IN PERCENT
  WIND   - DIRECTION AND SPEED /MPH FOR ISLANDS...KTS FOR BUOYS/
  PRES   - MEAN SEA LEVEL PRESSURE IN INCHES OF HG
  VSB    - VISIBILITY IN MILES
  HX     - HEAT INDEX
  WCI    - WIND CHILL INDEX
  VRB    - VARIABLE WIND DIRECTION
  N/A    - NOT AVAILABLE




USA.gov is the U.S. government's official web portal to all federal, state and local government web resources and services.